Find deb Briz-KM

NORAD ID: 41719 Int'l Des: 2015-020 Owner: VVKOV Country: RU Debris
LEOPOLAR

Aktuelle Ansicht

3D-Globus wird geladen...

Über deb Briz-KM

Beschreibung wird geladen...

Nächste Überflüge

Passes for default location (London). Set your location on the main map for personalized predictions.

Höhenverlauf

Loading altitude history...

Zweizeiliger Elementsatz

1 41719U 15020G 26145.02028331 .00000032 00000-0 90304-4 0 9992
2 41719 82.4911 248.6246 0222129 186.3135 173.5156 12.75192179509507
Epoch: 25. Mai 2026 • Age: 16 hours

Aktueller Status

Höhe 1252.0 km
Geschwindigkeit 7.29 km/s
Subsatellitenpunkt -47.57°S, 57.88°W
Startdatum 31. März 2015
Alter 11.1 years
Typ debris

Technische Details

Klassifizierung Fragmentation Debris
Masse 0.00 kg
Trockenmasse 0.00 kg
Gesamtmasse 0.00 kg
Länge 0.00 m
Durchmesser 0.00 m
Spannweite 0.00 m
Hersteller KHRO
Phasenstatus In Orbit
Besitzer/Staat VVKOV/RU

Most Searched